FFT2084 KSAN-KPHX

Flight info

Callsign FFT2084
Flight time 0h 51m
Altitude 29000
Route ZZOOO4 HOGGZ HYDRR1
Aircraft A21N/M-SDE2E3FGHIRWXY/LB1

Departure

Time 2026-04-26 18:29
Airport San Diego International Airport (KSAN)

Arrival

Time 2026-04-26 19:20
Airport Phoenix Sky Harbor International Airport (KPHX)
Time Latitude Longitude Altitude Speed Heading
2026-04-26 17:44 32.73242 -117.19298 27 ft 0 kts 194°
2026-04-26 18:20 32.73257 -117.19294 29 ft 4 kts 193°
2026-04-26 18:20 32.73284 -117.19288 28 ft 4 kts 187°
2026-04-26 18:20 32.73302 -117.19286 27 ft 4 kts 179°
2026-04-26 18:21 32.73332 -117.19296 26 ft 4 kts 124°
2026-04-26 18:21 32.73337 -117.19308 26 ft 1 kts 104°
2026-04-26 18:21 32.73337 -117.19309 26 ft 0 kts 104°
2026-04-26 18:24 32.73334 -117.19297 26 ft 4 kts 105°
2026-04-26 18:24 32.73322 -117.19247 26 ft 9 kts 106°
2026-04-26 18:25 32.73300 -117.19157 28 ft 14 kts 106°
2026-04-26 18:25 32.73268 -117.19028 28 ft 18 kts 106°
2026-04-26 18:25 32.73233 -117.18880 28 ft 19 kts 106°
2026-04-26 18:25 32.73195 -117.18720 28 ft 21 kts 106°
2026-04-26 18:26 32.73153 -117.18550 30 ft 22 kts 106°
2026-04-26 18:26 32.73110 -117.18372 30 ft 23 kts 106°
2026-04-26 18:26 32.73065 -117.18184 28 ft 24 kts 107°
2026-04-26 18:26 32.73016 -117.17990 26 ft 25 kts 105°
2026-04-26 18:27 32.72971 -117.17796 25 ft 19 kts 106°
2026-04-26 18:27 32.72948 -117.17673 26 ft 15 kts 77°
2026-04-26 18:27 32.72988 -117.17571 32 ft 11 kts 49°
2026-04-26 18:27 32.73019 -117.17570 30 ft 3 kts 298°
2026-04-26 18:28 32.73026 -117.17596 28 ft 5 kts 284°
2026-04-26 18:28 32.73083 -117.17837 27 ft 67 kts 286°
2026-04-26 18:28 32.73282 -117.18660 30 ft 136 kts 285°
2026-04-26 18:28 32.73569 -117.19847 402 ft 153 kts 287°
2026-04-26 18:29 32.73843 -117.21080 1153 ft 155 kts 285°
2026-04-26 18:29 32.74152 -117.22364 1700 ft 170 kts 286°
2026-04-26 18:29 32.74495 -117.23782 2257 ft 187 kts 287°
2026-04-26 18:29 32.74868 -117.25352 2800 ft 209 kts 286°
2026-04-26 18:30 32.75285 -117.27073 3441 ft 222 kts 286°
2026-04-26 18:30 32.75710 -117.28852 4291 ft 226 kts 286°
2026-04-26 18:30 32.76147 -117.30669 5174 ft 230 kts 285°
2026-04-26 18:30 32.76572 -117.32517 6059 ft 233 kts 280°
2026-04-26 18:31 32.76535 -117.34441 6890 ft 237 kts 256°
2026-04-26 18:31 32.75794 -117.36193 7703 ft 243 kts 233°
2026-04-26 18:31 32.74432 -117.37431 8516 ft 254 kts 208°
2026-04-26 18:31 32.72665 -117.37831 9306 ft 268 kts 181°
2026-04-26 18:32 32.70844 -117.37169 10040 ft 283 kts 151°
2026-04-26 18:32 32.69430 -117.35550 10708 ft 292 kts 128°
2026-04-26 18:32 32.68263 -117.33502 11439 ft 296 kts 125°
2026-04-26 18:32 32.67123 -117.31448 12144 ft 300 kts 126°
2026-04-26 18:33 32.65941 -117.29388 12860 ft 304 kts 127°
2026-04-26 18:33 32.64741 -117.27342 13575 ft 308 kts 127°
2026-04-26 18:33 32.63532 -117.25223 14242 ft 313 kts 121°
2026-04-26 18:33 32.62829 -117.22763 14711 ft 324 kts 98°
2026-04-26 18:34 32.62581 -117.20031 15017 ft 341 kts 95°
2026-04-26 18:34 32.62382 -117.17157 15289 ft 359 kts 95°
2026-04-26 18:34 32.62151 -117.14134 15559 ft 377 kts 97°
2026-04-26 18:34 32.61985 -117.10960 15843 ft 394 kts 87°
2026-04-26 18:35 32.62547 -117.07764 16374 ft 399 kts 68°
2026-04-26 18:35 32.63592 -117.04689 17012 ft 404 kts 65°
2026-04-26 18:35 32.64689 -117.01594 17629 ft 409 kts 65°
2026-04-26 18:35 32.65775 -116.98440 18224 ft 416 kts 66°
2026-04-26 18:36 32.66656 -116.95155 18744 ft 422 kts 80°
2026-04-26 18:36 32.66861 -116.91673 19285 ft 425 kts 91°
2026-04-26 18:36 32.66890 -116.88154 19827 ft 429 kts 91°
2026-04-26 18:36 32.66924 -116.84590 20358 ft 433 kts 91°
2026-04-26 18:37 32.66982 -116.80995 20886 ft 437 kts 91°
2026-04-26 18:37 32.67057 -116.77371 21411 ft 442 kts 91°
2026-04-26 18:37 32.67081 -116.73714 21930 ft 445 kts 94°
2026-04-26 18:37 32.67033 -116.70067 22439 ft 449 kts 94°
2026-04-26 18:38 32.66976 -116.66342 22954 ft 453 kts 94°
2026-04-26 18:38 32.66912 -116.62586 23461 ft 457 kts 94°
2026-04-26 18:38 32.66850 -116.58798 23904 ft 461 kts 94°
2026-04-26 18:38 32.66790 -116.54974 24237 ft 465 kts 94°
2026-04-26 18:39 32.66725 -116.51107 24641 ft 470 kts 95°
2026-04-26 18:39 32.66646 -116.47215 25015 ft 474 kts 95°
2026-04-26 18:39 32.66583 -116.43265 25379 ft 480 kts 93°
2026-04-26 18:39 32.66823 -116.39295 25741 ft 487 kts 86°
2026-04-26 18:40 32.67199 -116.35264 26088 ft 492 kts 86°
2026-04-26 18:40 32.67579 -116.31218 26432 ft 496 kts 86°
2026-04-26 18:40 32.67951 -116.27183 26762 ft 500 kts 86°
2026-04-26 18:40 32.68322 -116.23059 27102 ft 504 kts 87°
2026-04-26 18:41 32.68698 -116.18903 27429 ft 508 kts 87°
2026-04-26 18:41 32.69077 -116.14714 27758 ft 513 kts 87°
2026-04-26 18:41 32.69456 -116.10486 28115 ft 516 kts 87°
2026-04-26 18:41 32.69837 -116.06245 28492 ft 518 kts 88°
2026-04-26 18:42 32.70215 -116.01990 28848 ft 520 kts 88°
2026-04-26 18:42 32.70612 -115.97720 29018 ft 511 kts 87°
2026-04-26 18:42 32.71394 -115.89433 29002 ft 503 kts 87°
2026-04-26 18:43 32.72153 -115.81159 28983 ft 503 kts 88°
2026-04-26 18:43 32.72901 -115.72892 28974 ft 503 kts 88°
2026-04-26 18:44 32.73639 -115.64604 28952 ft 506 kts 88°
2026-04-26 18:44 32.74385 -115.56293 28949 ft 506 kts 88°
2026-04-26 18:45 32.74956 -115.48027 28950 ft 503 kts 93°
2026-04-26 18:45 32.75161 -115.39716 28946 ft 503 kts 94°
2026-04-26 18:46 32.75347 -115.31404 28932 ft 503 kts 94°
2026-04-26 18:46 32.75535 -115.23114 28973 ft 502 kts 94°
2026-04-26 18:47 32.75722 -115.14800 28987 ft 502 kts 94°
2026-04-26 18:47 32.75906 -115.06504 28977 ft 502 kts 94°
2026-04-26 18:48 32.76065 -114.98207 28953 ft 502 kts 94°
2026-04-26 18:48 32.76239 -114.89923 28952 ft 502 kts 94°
2026-04-26 18:49 32.76410 -114.81689 28960 ft 501 kts 94°
2026-04-26 18:49 32.76566 -114.73358 28959 ft 501 kts 94°
2026-04-26 18:50 32.76717 -114.65129 28979 ft 501 kts 94°
2026-04-26 18:50 32.76861 -114.56845 28963 ft 501 kts 95°
2026-04-26 18:51 32.76953 -114.49961 28957 ft 501 kts 95°
2026-04-26 18:51 32.77083 -114.40292 28957 ft 501 kts 95°
2026-04-26 18:52 32.77166 -114.33394 28926 ft 502 kts 95°
2026-04-26 18:52 32.77271 -114.25097 28950 ft 502 kts 94°
2026-04-26 18:53 32.77370 -114.16783 28946 ft 503 kts 95°
2026-04-26 18:53 32.77465 -114.08479 28950 ft 503 kts 94°
2026-04-26 18:54 32.78196 -114.00150 28936 ft 508 kts 86°
2026-04-26 18:54 32.79123 -113.91877 28947 ft 508 kts 86°
2026-04-26 18:55 32.80038 -113.83570 28732 ft 500 kts 86°
2026-04-26 18:55 32.80487 -113.79508 28395 ft 492 kts 86°
2026-04-26 18:55 32.80924 -113.75500 27950 ft 487 kts 86°
2026-04-26 18:56 32.81377 -113.71526 27451 ft 485 kts 84°
2026-04-26 18:56 32.82258 -113.67663 26962 ft 486 kts 67°
2026-04-26 18:56 32.83931 -113.64206 26479 ft 479 kts 48°
2026-04-26 18:56 32.86216 -113.61405 26011 ft 468 kts 36°
2026-04-26 18:57 32.88649 -113.58833 25547 ft 466 kts 37°
2026-04-26 18:57 32.90205 -113.57073 25254 ft 466 kts 40°
2026-04-26 18:57 32.93196 -113.53339 24639 ft 466 kts 44°
2026-04-26 18:57 32.95355 -113.50463 24179 ft 464 kts 44°
2026-04-26 18:58 32.97450 -113.47620 23697 ft 462 kts 45°
2026-04-26 18:58 32.99591 -113.44713 23161 ft 458 kts 45°
2026-04-26 18:58 33.01655 -113.41908 22625 ft 454 kts 45°
2026-04-26 18:58 33.03725 -113.39100 22127 ft 449 kts 45°
2026-04-26 18:59 33.05784 -113.36315 21625 ft 445 kts 45°
2026-04-26 18:59 33.07821 -113.33561 21153 ft 440 kts 45°
2026-04-26 18:59 33.09832 -113.30841 20689 ft 435 kts 45°
2026-04-26 18:59 33.11819 -113.28151 20266 ft 430 kts 45°
2026-04-26 19:00 33.13784 -113.25497 19874 ft 423 kts 45°
2026-04-26 19:00 33.15720 -113.22876 19506 ft 417 kts 45°
2026-04-26 19:00 33.17623 -113.20299 19156 ft 410 kts 45°
2026-04-26 19:00 33.19492 -113.17765 18823 ft 403 kts 45°
2026-04-26 19:01 33.21327 -113.15279 18492 ft 396 kts 45°
2026-04-26 19:01 33.23142 -113.12813 18172 ft 393 kts 45°
2026-04-26 19:01 33.24935 -113.10376 17805 ft 389 kts 45°
2026-04-26 19:01 33.26681 -113.07932 17476 ft 385 kts 50°
2026-04-26 19:02 33.27945 -113.05138 17168 ft 381 kts 73°
2026-04-26 19:02 33.28376 -113.02068 16886 ft 370 kts 95°
2026-04-26 19:02 33.28189 -112.99040 16631 ft 362 kts 101°
2026-04-26 19:02 33.28041 -112.97065 16459 ft 359 kts 99°
2026-04-26 19:03 33.27898 -112.93095 16120 ft 356 kts 95°
2026-04-26 19:03 33.27895 -112.90153 15871 ft 352 kts 93°
2026-04-26 19:03 33.27933 -112.87234 15611 ft 349 kts 92°
2026-04-26 19:03 33.27992 -112.84380 15348 ft 346 kts 92°
2026-04-26 19:04 33.28101 -112.81518 15090 ft 344 kts 87°
2026-04-26 19:04 33.28352 -112.78678 14838 ft 341 kts 86°
2026-04-26 19:04 33.28620 -112.75871 14581 ft 338 kts 86°
2026-04-26 19:04 33.28888 -112.73090 14336 ft 335 kts 86°
2026-04-26 19:05 33.29408 -112.67599 13860 ft 331 kts 86°
2026-04-26 19:05 33.29663 -112.64873 13600 ft 328 kts 86°
2026-04-26 19:05 33.29915 -112.62171 13309 ft 326 kts 86°
2026-04-26 19:06 33.30165 -112.59486 13036 ft 324 kts 86°
2026-04-26 19:06 33.30414 -112.56816 12774 ft 321 kts 86°
2026-04-26 19:06 33.30661 -112.54165 12521 ft 319 kts 86°
2026-04-26 19:06 33.30904 -112.51542 12271 ft 317 kts 86°
2026-04-26 19:07 33.31142 -112.48925 12030 ft 315 kts 86°
2026-04-26 19:07 33.31376 -112.46338 11787 ft 313 kts 86°
2026-04-26 19:07 33.31612 -112.43757 11540 ft 309 kts 86°
2026-04-26 19:07 33.31847 -112.41211 11324 ft 324 kts 86°
2026-04-26 19:08 33.32091 -112.38513 11157 ft 324 kts 86°
2026-04-26 19:08 33.32333 -112.35850 10935 ft 322 kts 86°
2026-04-26 19:08 33.32578 -112.33206 10593 ft 319 kts 86°
2026-04-26 19:08 33.32823 -112.30568 10167 ft 318 kts 85°
2026-04-26 19:09 33.33063 -112.27956 9749 ft 315 kts 86°
2026-04-26 19:09 33.33298 -112.25366 9393 ft 309 kts 85°
2026-04-26 19:09 33.33530 -112.22833 9148 ft 304 kts 85°
2026-04-26 19:09 33.33756 -112.20336 8928 ft 304 kts 85°
2026-04-26 19:10 33.33985 -112.17801 8865 ft 307 kts 85°
2026-04-26 19:10 33.34213 -112.15255 8883 ft 307 kts 85°
2026-04-26 19:10 33.34437 -112.12711 8894 ft 308 kts 85°
2026-04-26 19:10 33.34663 -112.10172 8914 ft 306 kts 86°
2026-04-26 19:11 33.34748 -112.07641 8728 ft 304 kts 92°
2026-04-26 19:11 33.34719 -112.05101 8179 ft 306 kts 93°
2026-04-26 19:11 33.34660 -112.02584 7925 ft 297 kts 94°
2026-04-26 19:11 33.34593 -112.00165 7748 ft 285 kts 93°
2026-04-26 19:12 33.34541 -111.97871 7603 ft 274 kts 93°
2026-04-26 19:12 33.34497 -111.95624 7334 ft 268 kts 93°
2026-04-26 19:12 33.34457 -111.93404 6965 ft 267 kts 93°
2026-04-26 19:12 33.34465 -111.91191 6645 ft 265 kts 90°
2026-04-26 19:13 33.34506 -111.88990 6299 ft 263 kts 90°
2026-04-26 19:13 33.34547 -111.86804 5943 ft 262 kts 90°
2026-04-26 19:13 33.34584 -111.84642 5637 ft 258 kts 90°
2026-04-26 19:13 33.34621 -111.82500 5280 ft 257 kts 90°
2026-04-26 19:14 33.34970 -111.80425 4974 ft 254 kts 65°
2026-04-26 19:14 33.35985 -111.78762 4771 ft 244 kts 39°
2026-04-26 19:14 33.37388 -111.77798 4606 ft 223 kts 14°
2026-04-26 19:14 33.38371 -111.77585 4512 ft 210 kts 359°
2026-04-26 19:15 33.40200 -111.77942 4120 ft 195 kts 331°
2026-04-26 19:15 33.41330 -111.78774 3919 ft 189 kts 313°
2026-04-26 19:15 33.42154 -111.79935 3904 ft 183 kts 297°
2026-04-26 19:15 33.42633 -111.81310 3905 ft 177 kts 278°
2026-04-26 19:16 33.42776 -111.82762 3861 ft 175 kts 270°
2026-04-26 19:16 33.42809 -111.84208 3717 ft 174 kts 268°
2026-04-26 19:16 33.42837 -111.85674 3504 ft 176 kts 271°
2026-04-26 19:16 33.42860 -111.87141 3269 ft 175 kts 269°
2026-04-26 19:17 33.42866 -111.88575 3046 ft 170 kts 268°
2026-04-26 19:17 33.42868 -111.89951 2818 ft 160 kts 267°
2026-04-26 19:17 33.42869 -111.91247 2624 ft 149 kts 267°
2026-04-26 19:17 33.42871 -111.92437 2445 ft 133 kts 265°
2026-04-26 19:18 33.42871 -111.93517 2273 ft 130 kts 265°
2026-04-26 19:18 33.42872 -111.94607 2098 ft 127 kts 265°
2026-04-26 19:18 33.42872 -111.95656 1914 ft 128 kts 266°
2026-04-26 19:18 33.42873 -111.96716 1758 ft 128 kts 265°
2026-04-26 19:19 33.42875 -111.97789 1579 ft 129 kts 265°
2026-04-26 19:19 33.42882 -111.98870 1395 ft 128 kts 266°
2026-04-26 19:19 33.42888 -111.99938 1244 ft 129 kts 266°
2026-04-26 19:19 33.42887 -112.00985 1137 ft 114 kts 268°
2026-04-26 19:20 33.42885 -112.01728 1132 ft 63 kts 269°
2026-04-26 19:20 33.42887 -112.01997 1135 ft 35 kts 273°
2026-04-26 19:20 33.42931 -112.02154 1133 ft 5 kts 330°
2026-04-26 19:20 33.42975 -112.02149 1132 ft 8 kts 35°
2026-04-26 19:21 33.42995 -112.02082 1132 ft 10 kts 89°
2026-04-26 19:21 33.42996 -112.01988 1134 ft 12 kts 90°
2026-04-26 19:21 33.42996 -112.01877 1131 ft 14 kts 90°
2026-04-26 19:21 33.42995 -112.01752 1134 ft 16 kts 89°
2026-04-26 19:22 33.42996 -112.01615 1134 ft 17 kts 90°
2026-04-26 19:22 33.42995 -112.01463 1135 ft 19 kts 89°
2026-04-26 19:22 33.42995 -112.01296 1135 ft 20 kts 89°
2026-04-26 19:22 33.42994 -112.01120 1132 ft 22 kts 90°
2026-04-26 19:23 33.42995 -112.00949 1135 ft 16 kts 90°
2026-04-26 19:23 33.43020 -112.00898 1135 ft 7 kts 22°
2026-04-26 19:23 33.43084 -112.00894 1138 ft 11 kts 358°
2026-04-26 19:23 33.43162 -112.00888 1133 ft 12 kts 30°
2026-04-26 19:24 33.43207 -112.00807 1136 ft 12 kts 69°
2026-04-26 19:24 33.43238 -112.00759 1133 ft 7 kts 25°
2026-04-26 19:24 33.43291 -112.00747 1132 ft 4 kts 12°
2026-04-26 19:25 33.43325 -112.00733 1131 ft 6 kts 13°
2026-04-26 19:25 33.43339 -112.00735 1130 ft 6 kts 346°
2026-04-26 19:25 33.43383 -112.00763 1131 ft 0 kts 320°
2026-04-26 19:26 33.43390 -112.00770 1135 ft 3 kts 321°
2026-04-26 19:26 33.43404 -112.00784 1134 ft 3 kts 320°
2026-04-26 19:26 33.43407 -112.00787 1133 ft 0 kts 320°